Weather in Veles

North Macedonia     41°42′58″N   21°47′00″E
temp.,
°C
wind,
m/s
gust,
m/s
humid.,
%
clouds,
%
prec.,
mm/h
press.,
hPa
HPBL,
m
27 november, sat
sat2701:00+5sse22947 0.2 100538
04:00+5sse22926 0.0 100529
07:00+5sse119267 0.0 100712
10:00+10se3574100 0.0 1006424
13:00+13se5759100 0.0 1004802
16:00+10se2279100 0.0 100438
19:00+9sse2287100 0.0 100521
22:00+8sse2287100 0.0 100516
28 november, sun
sun2801:00+8s118799 0.0 100513
04:00+7se118711 0.0 100513
07:00+6se119186 0.0 100514
10:00+11se3473100 0.0 1005358
13:00+14sse595591 0.0 10021406
16:00+10se357999 0.4 1001124
19:00+9sse3793100 4.1 1000404
22:00+9s2295100 4.4 1000117
29 november, mon
mon2901:00+9sse229498 5.3 99898
04:00+8sse249515 0.3 997143
07:00+8ssw11916 1.8 99826
10:00+8n3581100 0.7 1001464
13:00+10e1167100 0.8 999421
16:00+9sse2378100 1.0 1000175
19:00+7sse3786100 1.0 1001236
22:00+6s3485100 0.1 1002109
30 november, tue
tue3001:00+6s1185100 0.2 100145
04:00+6nw2391100 1.5 1002201
07:00+2nnw51189100 2.1 1006553
10:00+3nnw7106294 0.1 1010878
13:00+4n695665 0.4 10121311
16:00+3nnw356110 0.0 1015193
19:00+1nw226920 0.0 101831
22:000nw22730 0.0 101925
1 december, wed
wed101:00−1wnw01730 0.0 102010
04:00−1s01743 0.0 102110
07:00−1s11774 0.0 102111
10:00+3se11601 0.0 1022378
13:00+6se12520 0.0 1019517
16:00+3ne01640 0.0 101910
19:00+2sw01700 0.0 101910
22:00+1s117686 0.0 101810